Weather History for KMLU - April, 2013

Change the Weather History Date:

Sunday, April 14, 2013

  Actual Average Record
Temperature  
Mean Temperature 66 °F 65 °F  
Max Temperature 74 °F 78 °F 91 °F (1936)
Min Temperature 58 °F 53 °F 34 °F (1959)
Degree Days  
Heating Degree Days 0 3  
Month to date heating degree days 86 56  
Since 1 July heating degree days 2113 2200  
Cooling Degree Days 1 3  
Month to date cooling degree days 21 35  
Year to date cooling degree days 42 78  
Growing Degree Days 16 (Base 50)    
Moisture  
Dew Point 57 °F    
Average Humidity 75    
Maximum Humidity 93    
Minimum Humidity 56    
Precipitation  
Precipitation 0.00 in 0.15 in 2.03 in (1993)
Month to date precipitation 4.31 2.05  
Year to date precipitation 20.52 16.41  
Snow  
Snow 0.00 in - - ()
Month to date snowfall 0.0  
Since 1 July snowfall 0.3  
Snow Depth 0.00 in    
Sea Level Pressure  
Sea Level Pressure 29.78 in    
Wind  
Wind Speed 4 mph (South)    
Max Wind Speed 16 mph    
Max Gust Speed 22 mph    
Visibility 10 miles    
Events      
T = Trace of Precipitation, MM = Missing Value Source: NWS Daily Summary

Daily Weather History Graph

Daily Weather History Graph

Search for Another Location

Airport or City:

Trip Planner

Search our weather history database for the weather conditions in past years. The results will help you decide how hot, cold, wet, or windy it might be!

Date:

Astronomy

Apr. 14, 2013 Rise Set
Actual Time 6:39 AM CDT 7:37 PM CDT
Civil Twilight 6:14 AM CDT 8:02 PM CDT
Nautical Twilight 5:44 AM CDT 8:32 PM CDT
Astronomical Twilight 5:13 AM CDT 9:03 PM CDT
Moon 9:26 AM CDT (4/14) 11:41 PM CDT (4/14)
Length of Visible Light 13h 48m
Length of Day
12h 57m
Waxing Crescent, 17% of the Moon is Illuminated
Apr 14
Waxing Crescent
Apr 18
First Quarter
Apr 25
Full
May 2
Last Quarter
May 9
New

Hourly Weather History & Observations

Time (CDT) Temp. Dew Point Humidity Pressure Visibility Wind Dir Wind Speed Gust Speed Precip Events Conditions
12:53 AM 66.0 °F 50.0 °F 56% 29.83 in 10.0 mi ESE 3.5 mph - N/A   Clear
1:53 AM 60.1 °F 51.1 °F 72% 29.83 in 10.0 mi Calm Calm - N/A   Clear
2:53 AM 61.0 °F 51.1 °F 70% 29.81 in 10.0 mi Calm Calm - N/A   Clear
3:53 AM 61.0 °F 51.1 °F 70% 29.82 in 10.0 mi Calm Calm - N/A   Clear
4:53 AM 63.0 °F 52.0 °F 67% 29.80 in 10.0 mi Variable 6.9 mph 17.3 mph N/A   Overcast
5:20 AM 60.8 °F 53.6 °F 77% 29.80 in 10.0 mi Variable 5.8 mph 17.3 mph N/A   Overcast
5:53 AM 61.0 °F 53.1 °F 75% 29.80 in 10.0 mi Calm Calm - N/A   Overcast
6:53 AM 60.1 °F 54.0 °F 80% 29.81 in 10.0 mi Calm Calm - N/A   Overcast
7:53 AM 61.0 °F 55.0 °F 81% 29.82 in 10.0 mi Calm Calm - N/A   Overcast
8:53 AM 61.0 °F 55.0 °F 81% 29.81 in 10.0 mi South 3.5 mph - N/A   Overcast
9:53 AM 63.0 °F 57.0 °F 81% 29.82 in 10.0 mi South 6.9 mph - N/A   Mostly Cloudy
10:53 AM 66.0 °F 57.9 °F 75% 29.82 in 10.0 mi South 12.7 mph 17.3 mph N/A   Mostly Cloudy
11:09 AM 66.2 °F 57.2 °F 73% 29.82 in 10.0 mi South 13.8 mph 20.7 mph N/A   Overcast
11:53 AM 66.0 °F 59.0 °F 78% 29.82 in 10.0 mi South 6.9 mph - N/A   Overcast
12:53 PM 68.0 °F 59.0 °F 73% 29.81 in 10.0 mi SSE 5.8 mph - N/A   Overcast
1:53 PM 70.0 °F 60.1 °F 71% 29.79 in 10.0 mi SSE 4.6 mph - N/A   Overcast
2:53 PM 71.6 °F 60.8 °F 69% 29.74 in 10.0 mi Variable 5.8 mph 16.1 mph N/A   Overcast
3:53 PM 71.1 °F 61.0 °F 70% 29.73 in 10.0 mi South 8.1 mph - N/A   Mostly Cloudy
4:21 PM 73.4 °F 60.8 °F 65% 29.73 in 10.0 mi South 11.5 mph 17.3 mph N/A   Mostly Cloudy
4:53 PM 73.0 °F 60.1 °F 64% 29.72 in 10.0 mi South 11.5 mph 17.3 mph N/A   Scattered Clouds
5:53 PM 73.0 °F 59.0 °F 61% 29.72 in 10.0 mi SSW 6.9 mph - N/A   Clear
6:53 PM 72.0 °F 60.1 °F 66% 29.72 in 10.0 mi SSE 6.9 mph - N/A   Clear
7:53 PM 66.9 °F 61.0 °F 81% 29.73 in 10.0 mi Calm Calm - N/A   Clear
8:53 PM 66.9 °F 61.0 °F 81% 29.75 in 10.0 mi Variable 3.5 mph - N/A   Clear
9:53 PM 66.9 °F 62.1 °F 84% 29.77 in 10.0 mi Variable 4.6 mph - N/A   Clear
10:53 PM 64.9 °F 62.1 °F 90% 29.78 in 10.0 mi Calm Calm - N/A   Partly Cloudy
11:53 PM 62.1 °F 61.0 °F 96% 29.78 in 10.0 mi Calm Calm - N/A   Clear